This is the latest recevied weather packets stored in our database for station/object KD4UFD. If no packets are shown the sender has not sent any weather packets the latest 10 day(s).
| Time | Temp. | Humidity | Pressure | Rain* | Wind** | Luminosity | Snow |
|---|---|---|---|---|---|---|---|
| 1777972383 | 11.11° C | 86% | 1013.9 hPa | 0 mm | - | 0 W/m² | - |
| 1777972080 | 11.11° C | 86% | 1013.8 hPa | 0 mm | - | 0 W/m² | - |
| 1777971778 | 11.11° C | 85% | 1013.8 hPa | 0 mm | - | 0 W/m² | - |
| 1777971475 | 11.11° C | 85% | 1013.6 hPa | 0 mm | - | 0 W/m² | - |
| 1777971173 | 11.67° C | 85% | 1013.7 hPa | 0 mm | - | 0 W/m² | - |
| 1777970870 | 11.11° C | 85% | 1013.6 hPa | 0 mm | - | 0 W/m² | - |
| 1777970569 | 11.67° C | 83% | 1013.5 hPa | 0 mm | - | 0 W/m² | - |
| 1777970266 | 11.67° C | 82% | 1013.2 hPa | 0 mm | - | 0 W/m² | - |
| 1777969962 | 12.22° C | 82% | 1013.3 hPa | 0 mm | - | 0 W/m² | - |
| 1777969659 | 12.22° C | 82% | 1012.9 hPa | 0 mm | - | 0 W/m² | - |
| 1777969356 | 12.22° C | 82% | 1013.1 hPa | 0 mm | - | 0 W/m² | - |
| 1777969052 | 12.22° C | 82% | 1012.9 hPa | 0 mm | - | 0 W/m² | - |
| 1777968749 | 12.22° C | 82% | 1013 hPa | 0 mm | - | 0 W/m² | - |
| 1777968446 | 12.22° C | 82% | 1012.9 hPa | 0 mm | - | 0 W/m² | - |
| 1777968141 | 12.22° C | 82% | 1012.9 hPa | 0 mm | - | 0 W/m² | - |
| 1777967837 | 11.67° C | 82% | 1012.7 hPa | 0 mm | - | 0 W/m² | - |
| 1777967535 | 11.67° C | 81% | 1012.5 hPa | 0 mm | - | 0 W/m² | - |
| 1777967232 | 11.67° C | 80% | 1012.7 hPa | 0 mm | - | 0 W/m² | - |
| 1777966929 | 12.22° C | 79% | 1012.7 hPa | 0 mm | - | 0 W/m² | - |
| 1777966627 | 12.78° C | 79% | 1012.7 hPa | 0 mm | - | 0 W/m² | - |
| 1777966325 | 12.78° C | 78% | 1013 hPa | 0 mm | - | 0 W/m² | - |
| 1777966020 | 13.33° C | 76% | 1012.7 hPa | 0 mm | - | 0 W/m² | - |
| 1777965717 | 13.89° C | 76% | 1012.9 hPa | 0 mm | - | 0 W/m² | - |
| 1777965412 | 13.89° C | 75% | 1012.9 hPa | 0 mm | - | 0 W/m² | - |
| 1777965110 | 14.44° C | 75% | 1013 hPa | 0 mm | - | 0 W/m² | - |
* Rain latest hour (hover to see other rain measurements)
** Current wind speed in m/s (hover to see current wind gust speed)